• In Belarus
  • List of Countries
  • For 7 days
  • Water Temperature
  • Satellite Maps
  • Weather Map
  • Weather Widgets
  • user-avatar
    Login

    Hourly Weather Bolshie Borzenki

    Today, 20 July, Saturday

    Time Temperature Precipitation Wind Pressure Humidity
    00:00 +12°C° 0 mm 4 mps 739 mmHg 93%
    01:00 +12°C° 0 mm 4 mps 739 mmHg 93%
    02:00 +12°C° 0 mm 3 mps 739 mmHg 94%
    03:00 +12°C° 0 mm 3 mps 739 mmHg 91%
    04:00 +13°C° 0 mm 4 mps 740 mmHg 89%
    05:00 +13°C° 0 mm 4 mps 740 mmHg 86%
    06:00 +15°C° 0 mm 4 mps 740 mmHg 82%
    07:00 +16°C° 0 mm 5 mps 740 mmHg 78%
    08:00 +19°C° 0 mm 5 mps 740 mmHg 74%
    09:00 +20°C° 0.1 mm 6 mps 741 mmHg 70%
    10:00 +21°C° 0.1 mm 6 mps 741 mmHg 67%
    11:00 +22°C° 0.1 mm 6 mps 741 mmHg 63%
    12:00 +22°C° 0.1 mm 6 mps 741 mmHg 62%
    13:00 +23°C° 0.1 mm 6 mps 741 mmHg 60%
    14:00 +23°C° 0.1 mm 6 mps 741 mmHg 59%
    15:00 +23°C° 0 mm 6 mps 741 mmHg 62%
    16:00 +23°C° 0 mm 5 mps 741 mmHg 65%
    17:00 +22°C° 0 mm 4 mps 742 mmHg 69%
    18:00 +20°C° 0 mm 4 mps 742 mmHg 70%
    19:00 +18°C° 0 mm 4 mps 742 mmHg 72%
    20:00 +17°C° 0 mm 3 mps 742 mmHg 73%
    21:00 +16°C° 0 mm 3 mps 742 mmHg 76%
    22:00 +14°C° 0 mm 3 mps 742 mmHg 79%
    23:00 +13°C° 0 mm 3 mps 742 mmHg 82%

    Tomorrow, 21 July, Sunday

    Time Temperature Precipitation Wind Pressure Humidity
    00:00 +13°C° 0 mm 3 mps 742 mmHg 85%
    01:00 +13°C° 0 mm 3 mps 742 mmHg 88%
    02:00 +12°C° 0 mm 3 mps 742 mmHg 91%
    03:00 +13°C° 0 mm 3 mps 742 mmHg 91%
    04:00 +14°C° 0 mm 2 mps 743 mmHg 92%
    05:00 +14°C° 0 mm 2 mps 743 mmHg 92%
    06:00 +16°C° 0 mm 3 mps 743 mmHg 87%
    07:00 +18°C° 0 mm 3 mps 743 mmHg 81%
    08:00 +20°C° 0 mm 3 mps 743 mmHg 76%
    09:00 +21°C° 0 mm 3 mps 743 mmHg 70%
    10:00 +22°C° 0 mm 3 mps 743 mmHg 64%
    11:00 +24°C° 0 mm 3 mps 743 mmHg 58%
    12:00 +25°C° 0 mm 3 mps 743 mmHg 57%
    13:00 +25°C° 0 mm 3 mps 742 mmHg 55%
    14:00 +25°C° 0 mm 3 mps 742 mmHg 54%
    15:00 +25°C° 0 mm 3 mps 742 mmHg 60%
    16:00 +24°C° 0 mm 3 mps 742 mmHg 65%
    17:00 +24°C° 0 mm 3 mps 742 mmHg 71%
    18:00 +21°C° 0 mm 3 mps 742 mmHg 76%
    19:00 +20°C° 0 mm 2 mps 742 mmHg 81%
    20:00 +18°C° 0 mm 2 mps 742 mmHg 87%
    21:00 +17°C° 0 mm 2 mps 742 mmHg 87%
    22:00 +16°C° 0 mm 2 mps 742 mmHg 88%
    23:00 +16°C° 0 mm 1 mps 742 mmHg 88%

    Day after tomorrow, 22 July, Monday

    Time Temperature Precipitation Wind Pressure Humidity
    00:00 +15°C° 0 mm 1 mps 741 mmHg 89%
    01:00 +15°C° 0 mm 1 mps 741 mmHg 89%
    02:00 +14°C° 0 mm 1 mps 741 mmHg 89%
    03:00 +15°C° 0 mm 1 mps 741 mmHg 89%
    04:00 +15°C° 0 mm 1 mps 741 mmHg 89%
    05:00 +15°C° 0 mm 1 mps 741 mmHg 89%
    06:00 +18°C° 0 mm 1 mps 741 mmHg 84%
    07:00 +20°C° 0 mm 1 mps 741 mmHg 79%
    08:00 +20°C° 0 mm 2 mps 741 mmHg 74%
    09:00 +23°C° 0 mm 1 mps 741 mmHg 69%
    10:00 +24°C° 0 mm 1 mps 741 mmHg 64%
    11:00 +25°C° 0 mm 1 mps 741 mmHg 59%
    12:00 +26°C° 0 mm 1 mps 741 mmHg 56%
    13:00 +26°C° 0 mm 1 mps 741 mmHg 53%
    14:00 +27°C° 0 mm 1 mps 741 mmHg 51%
    15:00 +27°C° 0 mm 1 mps 740 mmHg 53%
    16:00 +24°C° 0 mm 0 mps 740 mmHg 55%
    17:00 +24°C° 0 mm 0 mps 740 mmHg 57%
    18:00 +24°C° 0 mm 1 mps 740 mmHg 62%
    19:00 +22°C° 0 mm 1 mps 740 mmHg 66%
    20:00 +19°C° 0 mm 2 mps 740 mmHg 70%
    21:00 +19°C° 0 mm 2 mps 740 mmHg 72%
    22:00 +19°C° 0 mm 2 mps 739 mmHg 73%
    23:00 +18°C° 0 mm 2 mps 739 mmHg 74%

    23 July, Tuesday

    Time Temperature Precipitation Wind Pressure Humidity
    00:00 +18°C° 0 mm 2 mps 739 mmHg 77%
    01:00 +18°C° 0 mm 3 mps 739 mmHg 79%
    02:00 +17°C° 0 mm 3 mps 739 mmHg 81%
    03:00 +18°C° 0 mm 3 mps 739 mmHg 82%
    04:00 +18°C° 0 mm 3 mps 739 mmHg 83%
    05:00 +18°C° 0 mm 3 mps 739 mmHg 84%
    06:00 +18°C° 0 mm 3 mps 739 mmHg 83%
    07:00 +19°C° 0 mm 4 mps 738 mmHg 82%
    08:00 +20°C° 0 mm 4 mps 738 mmHg 81%
    09:00 +21°C° 0 mm 4 mps 738 mmHg 77%
    10:00 +22°C° 0 mm 5 mps 738 mmHg 74%
    11:00 +23°C° 0 mm 5 mps 738 mmHg 71%
    12:00 +23°C° 0.4 mm 5 mps 738 mmHg 71%
    13:00 +23°C° 0.4 mm 5 mps 738 mmHg 72%
    14:00 +25°C° 0.4 mm 5 mps 738 mmHg 72%
    15:00 +23°C° 0.6 mm 5 mps 738 mmHg 77%
    16:00 +22°C° 0.6 mm 4 mps 738 mmHg 83%
    17:00 +21°C° 0.6 mm 3 mps 738 mmHg 88%
    18:00 +20°C° 0.3 mm 3 mps 738 mmHg 90%
    19:00 +19°C° 0.3 mm 3 mps 738 mmHg 92%
    20:00 +19°C° 0.3 mm 3 mps 738 mmHg 94%
    21:00 +18°C° 0.3 mm 3 mps 738 mmHg 95%
    22:00 +18°C° 0.3 mm 3 mps 738 mmHg 96%
    23:00 +18°C° 0.3 mm 3 mps 739 mmHg 96%

    24 July, Wednesday

    Time Temperature Precipitation Wind Pressure Humidity
    00:00 +18°C° 0.4 mm 3 mps 739 mmHg 97%
    01:00 +18°C° 0.4 mm 3 mps 738 mmHg 97%
    02:00 +18°C° 0.4 mm 3 mps 738 mmHg 97%
    03:00 +18°C° 0.4 mm 4 mps 738 mmHg 97%
    04:00 +18°C° 0.4 mm 4 mps 738 mmHg 97%
    05:00 +18°C° 0.4 mm 4 mps 738 mmHg 96%
    06:00 +18°C° 0.6 mm 4 mps 739 mmHg 95%
    07:00 +19°C° 0.6 mm 4 mps 739 mmHg 93%
    08:00 +20°C° 0.6 mm 4 mps 739 mmHg 92%
    09:00 +20°C° 0.2 mm 4 mps 739 mmHg 90%
    10:00 +20°C° 0.2 mm 4 mps 739 mmHg 89%
    11:00 +21°C° 0.2 mm 4 mps 739 mmHg 88%
    12:00 +21°C° 0.1 mm 4 mps 739 mmHg 86%
    13:00 +21°C° 0.1 mm 4 mps 739 mmHg 85%
    14:00 +22°C° 0.1 mm 4 mps 739 mmHg 84%
    15:00 +22°C° 0.7 mm 4 mps 739 mmHg 84%
    16:00 +22°C° 0.7 mm 4 mps 739 mmHg 84%
    17:00 +22°C° 0.7 mm 4 mps 739 mmHg 83%
    18:00 +21°C° 0.5 mm 4 mps 739 mmHg 86%
    19:00 +20°C° 0.5 mm 3 mps 740 mmHg 90%
    20:00 +19°C° 0.5 mm 3 mps 740 mmHg 93%
    21:00 +18°C° 0 mm 3 mps 740 mmHg 94%
    22:00 +18°C° 0 mm 3 mps 740 mmHg 95%
    23:00 +18°C° 0 mm 3 mps 740 mmHg 96%

    25 July, Thursday

    Time Temperature Precipitation Wind Pressure Humidity
    00:00 +18°C° 0.2 mm 3 mps 740 mmHg 96%
    01:00 +18°C° 0.2 mm 3 mps 740 mmHg 96%
    02:00 +18°C° 0.2 mm 3 mps 740 mmHg 97%
    03:00 +17°C° 0.2 mm 4 mps 740 mmHg 96%
    04:00 +17°C° 0.2 mm 4 mps 740 mmHg 96%
    05:00 +17°C° 0.2 mm 4 mps 740 mmHg 95%
    06:00 +16°C° 0 mm 5 mps 740 mmHg 93%
    07:00 +17°C° 0 mm 5 mps 740 mmHg 91%
    08:00 +17°C° 0 mm 5 mps 741 mmHg 89%
    09:00 +19°C° 0 mm 6 mps 741 mmHg 86%
    10:00 +20°C° 0 mm 6 mps 741 mmHg 83%
    11:00 +20°C° 0 mm 6 mps 741 mmHg 80%
    12:00 +20°C° 0.1 mm 6 mps 741 mmHg 81%
    13:00 +20°C° 0.1 mm 6 mps 741 mmHg 81%
    14:00 +20°C° 0.1 mm 6 mps 741 mmHg 82%
    15:00 +20°C° 0.4 mm 6 mps 741 mmHg 83%
    16:00 +20°C° 0.4 mm 5 mps 741 mmHg 85%
    17:00 +20°C° 0.4 mm 5 mps 741 mmHg 86%
    18:00 +19°C° 0.2 mm 4 mps 741 mmHg 89%
    19:00 +18°C° 0.2 mm 3 mps 741 mmHg 92%
    20:00 +17°C° 0.2 mm 3 mps 742 mmHg 96%
    21:00 +17°C° 0 mm 3 mps 742 mmHg 96%
    22:00 +17°C° 0 mm 2 mps 742 mmHg 96%
    23:00 +16°C° 0 mm 2 mps 742 mmHg 96%
    Show more